1503072001.07,58082,23.69,74658.8,13.03,-9.71,-7.57,0,*41
1503072002.31,58083,23.69,74658.0,13.03,-9.45,-7.35,0,*43
1503072003.52,58084,23.69,74658.8,13.03,-9.57,-7.49,0,*4C
1503072004.76,58085,23.69,74660.5,13.01,-9.61,-7.53,0,*41
1503072006.03,58086,23.69,74658.3,13.01,-9.61,-7.61,0,*43
1503072007.3,58087,23.69,74656.5,13.01,-9.49,-7.39,0,*45
1503072008.57,58088,23.69,74662.0,13.01,-9.61,-7.57,0,*48
1503072009.82,58089,23.69,74660.5,12.99,-9.49,-7.39,0,*4B
1503072011.07,58090,23.69,74658.5,13.01,-9.37,-7.19,0,*48
1503072012.33,58091,23.69,74662.0,12.99,-9.15,-7.01,0,*40
1503072013.56,58092,23.69,74660.5,12.99,-9.05,-6.93,0,*48
1503072014.79,58093,23.69,74658.5,12.99,-8.93,-6.93,0,*47
1503072016.04,58094,23.69,74658.5,12.97,-8.81,-6.81,0,*4E
1503072017.25,58095,23.69,74656.8,12.95,-8.81,-6.73,0,*40
1503072018.47,58096,23.69,74658.5,12.97,-8.67,-6.69,0,*42
1503072019.73,58097,23.69,74660.3,12.97,-8.55,-6.63,0,*48
1503072020.95,58098,23.69,74658.0,12.97,-8.25,-6.31,0,*47
1503072022.2,58099,23.69,74660.3,12.97,-8.17,-6.27,0,*40
1503072023.43,58100,23.69,74660.3,12.97,-8.17,-6.51,0,*40
1503072024.65,58101,23.69,74658.8,12.97,-8.45,-6.73,0,*46
1503072025.9,58102,23.69,74662.5,12.97,-8.29,-6.63,0,*4E
1503072027.1,58103,23.69,74662.3,12.95,-8.17,-6.55,0,*45
1503072028.31,58104,23.69,74660.0,12.95,-8.03,-6.43,0,*40
1503072029.53,58105,23.69,74662.3,12.95,-7.87,-6.19,0,*4D
1503072030.78,58106,23.69,74660.5,12.95,-7.73,-6.27,0,*48
1503072032.02,58107,23.69,74658.3,12.95,-7.61,-6.27,0,*4A
1503072033.24,58108,23.69,74662.0,12.95,-7.49,-6.19,0,*42
1503072034.45,58109,23.69,74658.5,12.95,-7.31,-6.13,0,*46
1503072035.68,58110,23.69,74660.3,12.95,-7.19,-5.93,0,*4F
1503072036.9,58111,23.69,74658.8,12.97,-7.11,-6.01,0,*4C
1503072038.12,58112,23.69,74656.8,12.95,-7.05,-6.01,0,*48
1503072039.35,58113,23.69,74658.3,12.95,-6.81,-5.85,0,*4B
1503072040.59,58114,23.69,74658.3,12.97,-6.43,-5.73,0,*49
1503072041.84,58115,23.69,74658.8,12.91,-6.59,-5.93,0,*4B
1503072043.08,58116,23.69,74658.3,12.91,-6.47,-5.89,0,*4C
1503072044.32,58117,23.69,74656.0,12.95,-6.27,-5.77,0,*4E
1503072045.59,58118,23.69,74658.3,12.91,-6.19,-5.89,0,*49
1503072046.86,58119,23.69,74656.0,12.91,-5.81,-5.69,0,*44
1503072048.1,58120,23.69,74660.5,12.95,-5.73,-5.65,0,*4B
1503072049.36,58121,23.69,74658.5,12.91,-5.65,-5.65,0,*49
1503072050.58,58122,23.69,74662.3,12.95,-5.51,-5.73,0,*4E
1503072051.8,58123,23.69,74660.5,12.95,-5.39,-5.65,0,*46
1503072053.01,58124,23.69,74656.0,12.95,-5.11,-5.47,0,*4B
1503072054.2,58125,23.69,74656.5,12.95,-4.99,-5.47,0,*4B
1503072055.41,58126,23.69,74656.0,12.95,-4.85,-5.39,0,*4C
1503072056.66,58127,23.69,74658.5,12.91,-4.65,-5.27,0,*48
1503072057.9,58128,23.69,74658.8,12.97,-4.69,-5.35,0,*4E
1503072059.11,58129,23.69,74656.3,12.91,-4.53,-5.39,0,*4C
1503072060.33,58130,23.69,74658.0,12.91,-4.41,-5.43,0,*4A
1503072061.55,58131,23.69,74658.0,12.91,-4.29,-5.51,0,*46
1503072062.79,58132,23.69,74658.0,12.91,-4.41,-5.65,0,*4C
1503072064.01,58133,23.69,74658.5,12.91,-4.21,-5.51,0,*4C
1503072065.24,58134,23.69,74660.3,12.91,-4.21,-5.55,0,*4F
1503072066.49,58135,23.69,74656.8,12.91,-4.25,-5.69,0,*45
1503072067.74,58136,23.69,74658.5,12.91,-4.21,-5.89,0,*4C
1503072068.98,58137,23.69,74662.8,12.91,-4.09,-5.77,0,*46
1503072070.23,58138,23.69,74656.0,12.91,-3.83,-5.65,0,*4F
1503072071.49,58139,23.69,74662.5,12.91,-3.71,-5.69,0,*4F
1503072072.76,58140,23.69,74660.5,12.91,-3.51,-5.65,0,*4F
1503072073.96,58141,23.69,74658.0,12.95,-3.39,-5.51,0,*43
1503072075.19,58142,23.69,74656.5,12.91,-3.35,-5.55,0,*4C
1503072076.41,58143,23.69,74656.5,12.91,-3.23,-5.51,0,*4E
1503072077.65,58144,23.69,74662.0,12.91,-3.31,-5.77,0,*4E
1503072078.87,58145,23.69,74660.0,12.95,-3.31,-5.77,0,*4B
1503072080.08,58146,23.69,74658.0,12.95,-3.19,-5.77,0,*42
1503072081.3,58147,23.69,74658.8,12.95,-3.07,-5.77,0,*4C
1503072082.53,58148,23.69,74658.8,12.95,-2.95,-5.65,0,*4A
1503072083.77,58149,23.69,74660.5,12.91,-2.99,-5.81,0,*49
1503072085.01,58150,23.69,74658.5,12.91,-2.87,-5.81,0,*4E
1503072086.26,58151,23.69,74658.8,12.91,-2.95,-5.93,0,*4F
1503072087.47,58152,23.69,74662.0,12.91,-2.87,-5.97,0,*4B
1503072088.73,58153,23.69,74658.5,12.91,-2.71,-5.77,0,*4D
1503072089.97,58154,23.69,74656.3,12.91,-2.83,-5.93,0,*4D
1503072091.24,58155,23.69,74658.5,12.91,-2.71,-5.93,0,*41
1503072092.51,58156,23.69,74656.3,12.91,-2.71,-5.93,0,*42
1503072093.75,58157,23.69,74658.5,12.91,-2.63,-5.97,0,*44
1503072094.98,58158,23.69,74658.8,12.91,-2.59,-5.97,0,*42
1503072096.25,58159,23.69,74660.0,12.91,-2.63,-6.19,0,*4F
1503072097.49,58160,23.69,74658.8,12.91,-2.59,-6.05,0,*41
1503072098.75,58161,23.69,74658.5,12.91,-2.59,-6.27,0,*40
1503072100.01,58162,23.69,74658.5,12.91,-2.55,-6.23,0,*4B
1503072101.23,58163,23.69,74658.5,12.89,-2.51,-6.13,0,*44
1503072102.47,58164,23.69,74656.0,12.91,-2.47,-6.09,0,*46
1503072103.7,58165,23.69,74656.8,12.91,-2.43,-6.23,0,*4B
1503072104.92,58166,23.69,74662.5,12.91,-2.43,-6.35,0,*4F
1503072106.16,58167,23.69,74658.8,12.91,-2.47,-6.43,0,*4B
1503072107.39,58168,23.69,74660.0,12.89,-2.47,-6.47,0,*49
1503072108.61,58169,23.69,74656.3,12.91,-2.23,-6.31,0,*42
1503072109.82,58170,23.69,74658.5,12.91,-2.35,-6.47,0,*4C
1503072111.04,58171,23.69,74656.8,12.91,-2.35,-6.59,0,*42
1503072112.25,58172,23.69,74658.5,12.91,-2.43,-6.69,0,*43
1503072113.46,58173,23.69,74658.8,12.89,-2.59,-6.77,0,*4F
1503072114.71,58174,23.69,74656.5,12.91,-2.47,-6.73,0,*4A
1503072115.93,58175,23.69,74658.8,12.89,-2.47,-6.77,0,*46
1503072117.15,58176,23.69,74662.5,12.89,-2.47,-6.73,0,*41
1503072118.36,58177,23.69,74656.8,12.91,-2.35,-6.73,0,*4C
1503072119.58,58178,23.69,74656.3,12.89,-2.23,-6.63,0,*4C
1503072120.77,58179,23.69,74658.5,12.89,-2.35,-6.77,0,*4F
1503072121.97,58180,23.69,74658.8,12.89,-2.39,-6.81,0,*4C
1503072123.17,58181,23.69,74658.5,12.89,-2.35,-6.81,0,*41
1503072124.37,58182,23.69,74658.0,12.89,-2.35,-6.81,0,*42
1503072125.58,58183,23.69,74658.5,12.89,-2.39,-6.93,0,*4C
1503072126.82,58184,23.69,74660.3,12.89,-2.51,-7.05,0,*4B
1503072128.06,58185,23.69,74658.0,12.89,-2.51,-7.05,0,*4A
1503072129.3,58186,23.69,74660.5,12.87,-2.47,-7.15,0,*41
1503072130.52,58187,23.69,74656.3,12.89,-2.59,-7.15,0,*41
1503072131.74,58188,23.69,74658.8,12.89,-2.51,-7.19,0,*4A
1503072132.98,58189,23.69,74658.5,12.87,-2.59,-7.19,0,*4D
1503072134.25,58190,23.69,74660.3,12.87,-2.63,-7.39,0,*4E
1503072135.49,58191,23.69,74656.3,12.85,-2.63,-7.35,0,*41
1503072136.77,58192,23.69,74658.5,12.87,-2.63,-7.43,0,*41
1503072138.03,58193,23.69,74658.0,12.87,-2.67,-7.39,0,*49
1503072139.29,58194,23.69,74656.0,12.87,-2.67,-7.39,0,*4E
1503072140.56,58195,23.69,74658.8,12.87,-2.67,-7.43,0,*42
1503072141.77,58196,23.69,74658.5,12.85,-2.71,-7.49,0,*4E
1503072142.99,58197,23.69,74656.3,12.85,-2.79,-7.57,0,*48
1503072144.25,58198,23.69,74662.8,12.87,-2.75,-7.57,0,*49
1503072145.47,58199,23.69,74656.5,12.85,-2.83,-7.57,0,*43
1503072146.7,58200,23.69,74656.5,12.87,-2.75,-7.53,0,*4F
1503072147.92,58201,23.69,74660.0,12.85,-2.83,-7.61,0,*44
1503072149.13,58202,23.69,74658.3,12.85,-2.83,-7.57,0,*42
1503072150.34,58203,23.69,74656.3,12.85,-2.83,-7.57,0,*43
1503072151.56,58204,23.69,74656.0,12.85,-2.83,-7.57,0,*44
1503072152.77,58205,23.69,74656.5,12.85,-2.83,-7.61,0,*40
1503072153.99,58206,23.69,74658.8,12.85,-2.79,-7.57,0,*43
1503072155.23,58207,23.69,74654.8,12.85,-2.71,-7.43,0,*4F
1503072156.44,58208,23.69,74656.3,12.83,-2.83,-7.49,0,*41
1503072157.65,58209,23.69,74656.0,12.83,-2.87,-7.53,0,*4F
1503072158.9,58210,23.69,74656.0,12.83,-3.19,-7.77,0,*47
1503072160.14,58211,23.69,74656.0,12.83,-3.11,-7.77,0,*4E
1503072161.38,58212,23.69,74656.3,12.83,-3.11,-7.73,0,*49
1503072162.63,58213,23.69,74656.3,12.83,-3.07,-7.65,0,*48
1503072163.87,58214,23.69,74654.5,12.83,-3.19,-7.73,0,*47
1503072165.11,58215,23.69,74654.3,12.83,-3.63,-8.29,0,*4B
1503072166.33,58216,23.69,74660.3,12.81,-3.67,-8.25,0,*42
1503072167.6,58217,23.69,74658.5,12.83,-3.59,-8.07,0,*4C
1503072168.8,58218,23.69,74658.8,12.81,-3.75,-8.25,0,*4F
1503072170.02,58219,23.69,74654.8,12.81,-3.67,-8.21,0,*49
1503072171.22,58220,23.69,74658.0,12.81,-3.75,-8.21,0,*40
1503072172.44,58221,23.69,74660.3,12.79,-3.91,-8.33,0,*4F
1503072173.67,58222,23.69,74654.5,12.81,-4.01,-8.37,0,*41
1503072174.86,58223,23.69,74656.0,12.81,-3.87,-8.25,0,*4A
1503072176.1,58224,23.69,74656.0,12.79,-4.01,-8.33,0,*44
1503072177.32,58225,23.69,74658.8,12.77,-4.01,-8.29,0,*40
1503072178.54,58226,23.69,74658.3,12.79,-4.05,-8.37,0,*46
1503072179.75,58227,23.69,74662.5,12.79,-4.13,-8.33,0,*44
1503072180.94,58228,23.69,74658.8,12.77,-4.09,-8.25,0,*49
1503072182.19,58229,23.69,74656.0,12.79,-4.05,-8.11,0,*4D
1503072183.4,58230,23.69,74658.5,12.77,-4.09,-8.11,0,*47
1503072184.68,58231,23.69,74660.5,12.79,-4.01,-8.07,0,*47
1503072185.93,58232,23.69,74658.8,12.77,-4.01,-8.03,0,*4E
1503072187.14,58233,23.69,74656.8,12.77,-4.41,-8.51,0,*4C
1503072188.37,58234,23.69,74660.5,12.77,-4.69,-8.81,0,*4C
1503072189.58,58235,23.69,74658.0,12.75,-4.61,-8.55,0,*4E
1503072190.8,58236,23.69,74658.8,12.75,-4.69,-8.63,0,*40
1503072192.01,58237,23.69,74656.8,12.73,-4.69,-8.59,0,*4E
1503072193.22,58238,23.69,74658.0,12.75,-4.45,-8.29,0,*4E
1503072194.42,58239,23.69,74658.8,12.75,-4.45,-8.29,0,*4F
1503072195.62,58240,23.69,74658.8,12.73,-4.65,-8.41,0,*4B
1503072196.82,58241,23.69,74656.8,12.75,-4.49,-8.17,0,*41
1503072198.04,58242,23.69,74658.0,12.75,-4.57,-8.29,0,*40
1503072199.23,58243,23.69,74658.5,12.73,-4.65,-8.33,0,*4D
1503072200.46,58244,23.69,74658.8,12.75,-4.73,-8.41,0,*4E
1503072201.68,58245,23.69,74656.5,12.73,-4.89,-8.45,0,*48
1503072202.9,58246,23.69,74654.5,12.73,-4.89,-8.41,0,*4F
1503072204.11,58247,23.69,74658.0,12.73,-4.85,-8.33,0,*47
1503072205.32,58248,23.69,74656.0,12.73,-4.85,-8.29,0,*43
1503072206.54,58249,23.69,74658.8,12.73,-5.03,-8.41,0,*43
1503072207.76,58250,23.69,74656.5,12.73,-5.03,-8.33,0,*4E
1503072208.97,58251,23.69,74658.8,12.73,-4.89,-8.29,0,*47
1503072210.2,58252,23.69,74656.3,12.73,-5.03,-8.21,0,*4F
1503072211.38,58253,23.69,74660.3,12.73,-4.99,-8.17,0,*49
1503072212.6,58254,23.69,74658.0,12.69,-5.15,-8.21,0,*45
1503072213.82,58255,23.69,74652.3,12.69,-5.15,-8.25,0,*40
1503072215.04,58256,23.69,74656.0,12.69,-5.31,-8.45,0,*43
1503072216.23,58257,23.69,74658.0,12.69,-5.47,-8.59,0,*4E
1503072217.47,58258,23.69,74658.5,12.67,-5.43,-8.51,0,*43
1503072218.67,58259,23.69,74656.3,12.69,-5.35,-8.37,0,*4D
1503072219.86,58260,23.69,74656.5,12.69,-5.35,-8.45,0,*42
1503072221.09,58261,23.69,74658.8,12.67,-5.47,-8.37,0,*4D
1503072222.31,58262,23.69,74654.3,12.69,-5.61,-8.45,0,*41
1503072223.55,58263,23.69,74656.0,12.67,-5.61,-8.33,0,*4F
1503072224.76,58264,23.69,74656.0,12.69,-5.69,-8.25,0,*49
1503072225.96,58265,23.69,74654.5,12.69,-5.47,-8.25,0,*44
1503072227.18,58266,23.69,74656.3,12.69,-5.55,-8.11,0,*43
1503072228.43,58267,23.69,74656.3,12.67,-5.47,-8.07,0,*48
1503072229.68,58268,23.69,74656.8,12.67,-5.43,-7.91,0,*43
1503072230.95,58269,23.69,74656.8,12.67,-5.61,-8.07,0,*42
1503072232.19,58270,23.69,74660.5,12.69,-5.73,-8.11,0,*40
1503072233.43,58271,23.69,74656.3,12.69,-5.73,-8.11,0,*41
1503072234.67,58272,23.69,74656.0,12.67,-5.85,-8.33,0,*45
1503072235.9,58273,23.69,74656.3,12.67,-6.05,-8.45,0,*4E
1503072237.15,58274,23.69,74658.8,12.67,-6.19,-8.37,0,*41
1503072238.37,58275,23.69,74658.0,12.67,-5.97,-8.21,0,*42
1503072239.59,58276,23.69,74658.0,12.67,-6.05,-8.25,0,*4D
1503072240.81,58277,23.69,74658.3,12.67,-6.05,-8.21,0,*48
1503072242.05,58278,23.69,74654.3,12.67,-6.23,-8.33,0,*40
1503072243.28,58279,23.69,74656.0,12.67,-6.35,-8.25,0,*41
1503072244.5,58280,23.69,74656.0,12.63,-6.31,-8.21,0,*43
1503072245.69,58281,23.69,74658.8,12.65,-6.39,-8.25,0,*48
1503072246.9,58282,23.69,74652.3,12.65,-6.55,-8.37,0,*42
1503072248.11,58283,23.69,74656.5,12.63,-6.59,-8.33,0,*4D
1503072249.33,58284,23.69,74652.0,12.63,-6.55,-8.21,0,*45
1503072250.58,58285,23.69,74652.8,12.63,-6.55,-8.11,0,*47
1503072251.83,58286,23.69,74656.5,12.63,-6.55,-8.07,0,*43
1503072253.05,58287,23.69,74658.3,12.65,-6.55,-8.03,0,*40
1503072254.29,58288,23.69,74654.5,12.63,-6.59,-8.03,0,*45
1503072255.52,58289,23.69,74658.0,12.65,-6.77,-8.11,0,*4D
1503072256.77,58290,23.69,74658.5,12.63,-6.73,-8.07,0,*40
1503072258.0,58291,23.69,74654.0,12.65,-6.77,-8.03,0,*47
1503072259.22,58292,23.69,74652.0,12.65,-6.93,-8.17,0,*4B
1503072260.46,58293,23.69,74656.3,12.63,-6.85,-7.99,0,*42
1503072261.73,58294,23.69,74656.0,12.63,-6.97,-8.03,0,*4A
1503072262.97,58295,23.69,74656.8,12.63,-6.85,-7.99,0,*44
1503072264.22,58296,23.69,74658.0,12.63,-6.81,-7.73,0,*47
1503072265.47,58297,23.69,74656.0,12.63,-6.81,-7.77,0,*42
1503072266.75,58298,23.69,74658.3,12.63,-6.93,-7.77,0,*4E
1503072267.99,58299,23.69,74656.8,12.63,-6.85,-7.65,0,*4B
1503072269.24,58300,23.69,74654.0,12.65,-7.01,-7.61,0,*45
1503072270.47,58301,23.69,74654.5,12.65,-7.05,-7.83,0,*4C
1503072271.71,58302,23.69,74656.0,12.63,-7.53,-8.03,0,*4D
1503072272.96,58303,23.69,74654.5,12.63,-7.73,-8.21,0,*4E
1503072274.16,58304,23.69,74654.5,12.65,-7.87,-8.29,0,*4C
1503072275.39,58305,23.69,74658.5,12.63,-8.03,-8.41,0,*46
1503072276.67,58306,23.69,74652.0,12.63,-7.77,-8.07,0,*4B
1503072277.92,58307,23.69,74652.8,12.63,-7.87,-8.07,0,*45
1503072279.13,58308,23.69,74654.5,12.63,-8.17,-8.33,0,*4B
1503072280.33,58309,23.69,74658.0,12.61,-8.21,-8.41,0,*48
1503072281.52,58310,23.69,74652.0,12.61,-8.29,-8.33,0,*4D
1503072282.71,58311,23.69,74650.5,12.61,-8.41,-8.45,0,*43
1503072283.9,58312,23.69,74652.0,12.59,-8.59,-8.71,0,*45
1503072285.09,58313,23.69,74656.0,12.59,-8.71,-8.71,0,*4E
1503072286.28,58314,23.69,74654.3,12.59,-8.75,-8.71,0,*4D
1503072287.51,58315,23.69,74652.0,12.57,-9.05,-8.89,0,*43
1503072288.72,58316,23.69,74652.8,12.55,-8.97,-8.81,0,*40
1503072289.91,58317,23.69,74658.0,12.55,-8.93,-8.75,0,*4E
1503072291.1,58318,23.69,74652.5,12.55,-9.05,-8.67,0,*4C
1503072292.28,58319,23.69,74654.8,12.55,-8.97,-8.67,0,*47
1503072293.49,58320,23.69,74656.3,12.53,-8.93,-8.55,0,*4E
1503072294.69,58321,23.69,74654.0,12.51,-9.23,-8.71,0,*41
1503072295.93,58322,23.69,74656.0,12.51,-9.11,-8.81,0,*4C
1503072297.15,58323,23.69,74652.3,12.51,-9.27,-8.81,0,*48
1503072298.36,58324,23.69,74654.0,12.49,-9.19,-8.59,0,*4E
1503072299.59,58325,23.69,74652.3,12.49,-9.19,-8.45,0,*42
1503072300.83,58326,23.69,74656.0,12.49,-9.31,-8.51,0,*4E
1503072302.08,58327,23.69,74654.5,12.49,-9.31,-8.51,0,*4F
1503072303.3,58328,23.69,74652.5,12.49,-9.27,-8.25,0,*44
1503072304.52,58329,23.69,74652.5,12.45,-9.23,-8.21,0,*49
1503072305.75,58330,23.69,74652.5,12.45,-9.19,-8.21,0,*48
1503072306.99,58331,23.69,74652.3,12.45,-9.37,-8.29,0,*4D
1503072308.24,58332,23.69,74652.5,12.45,-9.23,-8.11,0,*40
1503072309.46,58333,23.69,74656.0,12.43,-9.37,-8.21,0,*41
1503072310.67,58334,23.69,74658.5,12.43,-9.61,-8.41,0,*43
1503072311.91,58335,23.69,74654.0,12.41,-10.05,-8.81,0,*76
1503072313.12,58336,23.69,74654.5,12.43,-10.05,-8.81,0,*77
1503072314.34,58337,23.69,74654.5,12.41,-9.79,-8.45,0,*4F
1503072315.54,58338,23.69,74652.0,12.39,-9.79,-8.37,0,*4A
1503072316.78,58339,23.69,74660.0,12.41,-9.83,-8.37,0,*41
1503072317.98,58340,23.69,74654.8,12.39,-9.93,-8.37,0,*41
1503072319.19,58341,23.69,74656.0,12.37,-10.23,-8.63,0,*7C
1503072320.42,58342,23.69,74656.0,12.37,-10.15,-8.45,0,*7E
1503072321.64,58343,23.69,74654.3,12.37,-10.01,-8.37,0,*7F
1503072322.86,58344,23.69,74656.3,12.37,-9.79,-8.29,0,*40
1503072324.07,58345,23.69,74656.3,12.37,-9.93,-8.21,0,*4D
1503072325.29,58346,23.69,74656.3,12.37,-9.93,-8.21,0,*4E
1503072326.5,58347,23.69,74658.5,12.37,-9.97,-8.21,0,*4B
1503072327.69,58348,23.69,74658.3,12.35,-10.05,-8.25,0,*71
1503072328.89,58349,23.69,74656.0,12.35,-10.27,-8.37,0,*73
1503072330.1,58350,23.69,74656.0,12.35,-10.15,-8.25,0,*79
1503072331.29,58351,23.69,74654.5,12.35,-10.27,-8.33,0,*7E
1503072332.48,58352,23.69,74658.5,12.35,-10.27,-8.33,0,*7D
1503072333.73,58353,23.69,74654.3,12.33,-10.01,-7.99,0,*71
1503072334.98,58354,23.69,74654.0,12.33,-10.01,-8.03,0,*7A
1503072336.2,58355,23.69,74658.8,12.33,-10.19,-8.17,0,*77
1503072337.43,58356,23.69,74654.0,12.33,-10.31,-8.25,0,*7F
1503072338.66,58357,23.69,74656.5,12.33,-10.35,-8.25,0,*7A
1503072339.88,58358,23.69,74652.0,12.33,-10.23,-8.17,0,*73
1503072341.1,58359,23.69,74656.5,12.31,-10.31,-8.11,0,*75
1503072342.32,58360,23.69,74652.8,12.31,-10.19,-8.03,0,*76
1503072343.52,58361,23.69,74652.5,12.31,-10.35,-8.17,0,*7C
1503072344.72,58362,23.69,74654.5,12.31,-10.35,-8.17,0,*7F
1503072345.95,58363,23.69,74654.5,12.31,-10.35,-8.11,0,*78
1503072347.19,58364,23.69,74654.0,12.29,-10.41,-8.17,0,*73
1503072348.44,58365,23.69,74652.0,12.29,-10.41,-8.17,0,*72
1503072349.66,58366,23.69,74652.3,12.29,-10.53,-8.17,0,*72
1503072350.91,58367,23.69,74652.5,12.29,-10.63,-8.21,0,*75
1503072352.19,58368,23.69,74652.0,12.29,-10.41,-8.07,0,*7E
1503072353.45,58369,23.69,74654.3,12.29,-10.67,-8.21,0,*7F
1503072354.7,58370,23.69,74652.3,12.29,-10.41,-7.83,0,*74
1503072355.95,58371,23.69,74654.3,12.27,-10.41,-7.77,0,*70
1503072357.15,58372,23.69,74658.3,12.23,-10.45,-7.83,0,*78
1503072358.35,58373,23.69,74656.0,12.27,-10.53,-7.83,0,*7A
1503072359.55,58374,23.69,74656.5,12.23,-10.57,-7.83,0,*7D
1503072360.75,58375,23.69,74658.5,12.27,-10.53,-7.83,0,*7C
1503072362.0,58376,23.69,74656.0,12.23,-10.79,-7.99,0,*78
1503072363.25,58377,23.69,74656.3,12.23,-10.67,-7.95,0,*7A
1503072364.5,58378,23.69,74656.5,12.27,-10.67,-8.03,0,*71
1503072365.72,58379,23.69,74652.8,12.23,-10.93,-8.11,0,*7C
1503072366.95,58380,23.69,74656.0,12.27,-10.89,-8.03,0,*76
1503072368.17,58381,23.69,74658.0,12.23,-10.79,-7.87,0,*7F
1503072369.42,58382,23.69,74658.5,12.27,-10.79,-7.95,0,*7B
1503072370.67,58383,23.69,74654.0,12.23,-11.07,-8.07,0,*72
1503072371.89,58384,23.69,74654.3,12.23,-11.11,-8.11,0,*75
1503072373.12,58385,23.69,74658.5,12.23,-11.11,-8.07,0,*73
1503072374.34,58386,23.69,74656.3,12.23,-11.11,-8.07,0,*70
1503072375.57,58387,23.69,74658.8,12.23,-11.15,-8.11,0,*72
1503072376.79,58388,23.69,74656.0,12.23,-11.29,-8.21,0,*71
1503072378.04,58389,23.69,74656.0,12.21,-11.33,-8.29,0,*71
1503072379.31,58390,23.69,74656.5,12.21,-11.29,-8.11,0,*79
1503072380.56,58391,23.69,74658.5,12.21,-11.33,-8.29,0,*78
1503072381.81,58392,23.69,74658.0,12.19,-11.29,-8.11,0,*70
1503072383.06,58393,23.69,74654.5,12.19,-11.29,-8.03,0,*72
1503072384.32,58394,23.69,74656.0,12.19,-11.33,-8.11,0,*7D
1503072385.52,58395,23.69,74654.5,12.19,-11.41,-8.17,0,*7F
1503072386.77,58396,23.69,74656.8,12.17,-11.59,-8.21,0,*7E
1503072388.01,58397,23.69,74656.0,12.17,-11.51,-8.17,0,*72
1503072389.28,58398,23.69,74656.3,12.17,-11.37,-7.95,0,*78
1503072390.53,58399,23.69,74656.0,12.15,-11.51,-8.07,0,*7F
1503072391.77,58400,23.69,74658.8,12.17,-11.77,-8.33,0,*79
1503072393.03,58401,23.69,74654.5,12.15,-11.63,-8.07,0,*78
1503072394.31,58402,23.69,74656.8,12.17,-11.33,-7.77,0,*74
1503072395.56,58403,23.69,74654.8,12.15,-11.37,-7.65,0,*70
1503072396.77,58404,23.69,74658.3,12.17,-11.19,-7.53,0,*7C
1503072398.05,58405,23.69,74654.5,12.17,-11.33,-7.69,0,*7C
1503072399.29,58406,23.69,74656.5,12.15,-11.37,-7.69,0,*79
1503072400.54,58407,23.69,74654.5,12.15,-11.51,-7.65,0,*74
1503072401.79,58408,23.69,74652.5,12.13,-11.41,-7.69,0,*70
1503072403.04,58409,23.69,74654.5,12.15,-11.37,-7.57,0,*7B
1503072404.26,58410,23.69,74654.3,12.15,-11.37,-7.53,0,*77
1503072405.51,58411,23.69,74652.8,12.15,-11.37,-7.39,0,*7A
1503072406.76,58412,23.69,74658.3,12.13,-11.41,-7.43,0,*73
1503072408.04,58413,23.69,74654.5,12.13,-11.33,-7.31,0,*72
1503072409.26,58414,23.69,74658.5,12.15,-11.23,-7.27,0,*75
1503072410.5,58415,23.69,74652.3,12.13,-11.23,-7.05,0,*72
1503072411.75,58416,23.69,74656.8,12.13,-11.15,-6.97,0,*7E
1503072412.98,58417,23.69,74656.5,12.13,-11.41,-7.19,0,*79
1503072414.21,58418,23.69,74656.3,12.13,-11.41,-7.23,0,*7F
1503072415.48,58419,23.69,74656.3,12.13,-11.33,-7.05,0,*7F
1503072416.73,58420,23.69,74656.5,12.13,-11.41,-6.97,0,*7A
1503072417.98,58421,23.69,74658.5,12.11,-11.29,-6.93,0,*73
1503072419.21,58422,23.69,74656.0,12.13,-11.11,-6.81,0,*7A
1503072420.41,58423,23.69,74656.0,12.11,-11.15,-6.81,0,*7D
1503072421.61,58424,23.69,74652.0,12.11,-11.15,-6.77,0,*73
1503072422.83,58425,23.69,74652.3,12.13,-11.15,-6.69,0,*7F
1503072424.06,58426,23.69,74654.5,12.11,-11.15,-6.63,0,*74
1503072425.25,58427,23.69,74658.3,12.11,-11.23,-6.69,0,*7A
1503072426.46,58428,23.69,74656.3,12.11,-11.01,-6.55,0,*7A
1503072427.71,58429,23.69,74658.5,12.09,-11.29,-6.85,0,*75
1503072428.91,58430,23.69,74652.3,12.11,-11.11,-6.55,0,*72
1503072430.16,58431,23.69,74652.3,12.09,-11.07,-6.55,0,*7D
1503072431.38,58432,23.69,74652.3,12.09,-11.15,-6.55,0,*7D
1503072432.6,58433,23.69,74654.5,12.09,-10.93,-6.43,0,*74
1503072433.83,58434,23.69,74656.0,12.09,-10.93,-6.31,0,*76
1503072435.07,58435,23.69,74658.5,12.07,-10.75,-6.23,0,*72
1503072436.32,58436,23.69,74658.8,12.09,-10.75,-6.09,0,*77
1503072437.56,58437,23.69,74654.8,12.09,-10.67,-6.01,0,*7D
1503072438.81,58438,23.69,74658.5,12.09,-10.49,-5.89,0,*7D
1503072440.06,58439,23.69,74654.5,12.09,-10.53,-5.89,0,*77
1503072441.3,58440,23.69,74656.0,12.09,-10.53,-5.89,0,*79
1503072442.56,58441,23.69,74656.8,12.09,-10.79,-6.23,0,*73
1503072443.81,58442,23.69,74652.5,12.09,-10.67,-6.01,0,*7F
1503072445.06,58443,23.69,74656.8,12.09,-10.53,-5.89,0,*7A
1503072446.28,58444,23.69,74654.5,12.07,-10.31,-5.69,0,*79
1503072447.5,58445,23.69,74656.0,12.07,-10.31,-5.65,0,*74
1503072448.71,58446,23.69,74656.8,12.07,-10.19,-5.51,0,*7A
1503072449.93,58447,23.69,74652.0,12.09,-10.19,-5.43,0,*76
1503072451.12,58448,23.69,74654.5,12.07,-10.05,-5.43,0,*7A
1503072452.31,58449,23.69,74658.8,12.07,-10.05,-5.43,0,*7B
1503072453.49,58450,23.69,74658.8,12.07,-10.05,-5.43,0,*73
1503072454.68,58451,23.69,74658.8,12.07,-9.97,-5.39,0,*4C
1503072455.87,58452,23.69,74652.3,12.07,-10.09,-5.51,0,*7E
1503072457.06,58453,23.69,74656.3,12.07,-9.97,-5.39,0,*4E
1503072458.3,58454,23.69,74652.0,12.07,-9.83,-5.31,0,*44
1503072459.52,58455,23.69,74658.3,12.07,-9.71,-5.15,0,*4E
1503072460.75,58456,23.69,74658.0,12.07,-9.71,-5.23,0,*48
1503072461.96,58457,23.69,74654.5,12.07,-9.83,-5.43,0,*42
1503072463.19,58458,23.69,74658.0,12.07,-9.79,-5.27,0,*4A
1503072464.44,58459,23.69,74656.3,12.05,-9.71,-5.31,0,*46
1503072465.7,58460,23.69,74656.3,12.05,-9.57,-5.27,0,*4F
1503072466.92,58461,23.69,74656.5,12.05,-9.75,-5.35,0,*4D
1503072468.19,58462,23.69,74654.5,12.05,-9.57,-5.27,0,*4D
1503072469.46,58463,23.69,74656.3,12.01,-9.45,-5.19,0,*46
1503072470.74,58464,23.69,74656.8,12.05,-9.41,-5.23,0,*48
1503072471.99,58465,23.69,74658.0,12.05,-9.27,-5.07,0,*4F
1503072473.27,58466,23.69,74656.0,12.05,-9.15,-5.07,0,*4D
1503072474.53,58467,23.69,74656.0,12.01,-9.31,-5.23,0,*48
1503072475.78,58468,23.69,74654.5,12.01,-9.37,-5.35,0,*46
1503072477.0,58469,23.69,74652.3,11.99,-9.37,-5.35,0,*45
1503072478.22,58470,23.69,74658.0,11.99,-9.37,-5.35,0,*4D
1503072479.42,58471,23.69,74654.8,11.99,-9.23,-5.35,0,*49
1503072480.68,58472,23.69,74652.3,11.99,-9.11,-5.19,0,*45
1503072481.92,58473,23.69,74656.3,11.97,-8.97,-5.15,0,*49
1503072483.15,58474,23.69,74656.8,11.99,-8.97,-5.19,0,*4C
1503072484.4,58475,23.69,74652.3,11.99,-8.81,-5.07,0,*45
1503072485.62,58476,23.69,74656.3,11.99,-8.75,-4.93,0,*41
1503072486.86,58477,23.69,74656.8,11.97,-8.67,-4.89,0,*46
1503072488.11,58478,23.69,74658.5,11.99,-8.51,-4.85,0,*4E
1503072489.36,58479,23.69,74656.0,11.97,-8.41,-4.89,0,*4C
1503072490.58,58480,23.69,74656.8,11.99,-8.29,-4.81,0,*42
1503072491.83,58481,23.69,74656.5,11.97,-8.21,-4.73,0,*48
1503072493.07,58482,23.69,74654.8,11.97,-8.17,-4.77,0,*4A
1503072494.31,58483,23.69,74656.5,11.97,-8.17,-4.77,0,*4B
1503072495.56,58484,23.69,74658.3,11.97,-8.29,-4.89,0,*40
1503072496.77,58485,23.69,74658.8,11.97,-8.29,-4.99,0,*40
1503072498.04,58486,23.69,74654.0,11.97,-8.03,-4.89,0,*4A
1503072499.3,58487,23.69,74656.8,11.95,-7.91,-4.77,0,*4C
1503072500.57,58488,23.69,74654.3,11.95,-7.91,-4.81,0,*4A
1503072501.84,58489,23.69,74656.0,11.95,-7.69,-4.69,0,*4A
1503072503.12,58490,23.69,74656.8,11.95,-7.65,-4.69,0,*4E
1503072504.39,58491,23.69,74658.0,11.95,-7.57,-4.69,0,*4E
1503072505.65,58492,23.69,74656.0,11.95,-7.57,-4.65,0,*41
1503072506.92,58493,23.69,74656.3,11.95,-7.57,-4.77,0,*43